Regional Weather Roundup
Issued by NWS

Home | Current Version | Previous Version | Text Only | Print | Product List | Glossary Off
Versions: 1 2 3 4 5 6 7 8 9 10 11 12 13 14 15 16 17 18 19 20 21 22 23 24 25 26 27 28 29 30 31 32 33 34 35 36 37 38 39 40 41 42 43 44 45 46 47 48 49 50

000
ASUS43 KLMK 181810
RWRKY
KENTUCKY REGIONAL WEATHER ROUNDUP
NATIONAL WEATHER SERVICE LOUISVILLE KY
200 PM EDT WED OCT 18 2017

NOTE "FAIR" INDICATES FEW OR NO CLOUDS BELOW 12,000 FEET
WITH NO SIGNIFICANT WEATHER AND/OR OBSTRUCTIONS TO VISIBILITY.

KYZ001>023-026-027-061>063-070>075-181900-
WESTERN AND SOUTH CENTRAL KENTUCKY

CITY           SKY/WX    TMP DP  RH WIND       PRES   REMARKS
PADUCAH        SUNNY     70  44  39 SW12G21   30.23F
HENDERSON      SUNNY     70  48  45 S13       30.25F
OWENSBORO      SUNNY     69  47  45 S10       30.26F
HOPKINSVILLE   SUNNY     69  46  43 S9        30.26F
BOWLING GREEN  SUNNY     70  46  42 S12       30.29F
GLASGOW        SUNNY     70  44  39 S10       30.29F
$$

KYZ024-025-028>034-038-045-046-053-181900-
NORTH CENTRAL KENTUCKY

CITY           SKY/WX    TMP DP  RH WIND       PRES   REMARKS
LOUISVILLE/SDF MOSUNNY   69  46  43 S9        30.26F
LOUISVILLE/LOU SUNNY     68  45  43 VRB5      30.28F
FORT KNOX      SUNNY     68  44  42 S8        30.26F
$$

KYZ035>037-039>044-047>052-055>060-089>105-181900-
NORTHEAST KENTUCKY

CITY           SKY/WX    TMP DP  RH WIND       PRES   REMARKS
LEXINGTON        N/A     67  46  47 VRB6      30.29F
COVINGTON      MOSUNNY   67  46  47 SW8       30.27F
FRANKFORT      SUNNY     69  42  37 VRB5      30.28F
$$

KYZ054-064>069-076>088-106>120-181900-
SOUTHEAST KENTUCKY

CITY           SKY/WX    TMP DP  RH WIND       PRES   REMARKS
JACKSON        SUNNY     68  42  38 CALM      30.31F
LONDON         SUNNY     67  42  40 S5        30.31F
SOMERSET       SUNNY     63  43  48 CALM      30.33F
MIDDLESBORO    SUNNY     68  45  44 CALM      30.33F
MONTICELLO     CLEAR     68  46  45 N9        30.32F
$$





USA.gov is the U.S. government's official web portal to all federal, state and local government web resources and services.